Wind_Speed
17 17 17 16 16 17 18 18 19 22 27 30 33 37 38 39 40 39 39 42 43 42 43 44 44 45 46 47 47 46 44 43 41 39 39 38 37 35 34 35 35 35 35 35 35 35 34 33 31 30 29 28 27 26 26 28 28 26 25 26 25 24 24
16 17 17 16 16 18 19 19 19 23 27 31 34 36 37 39 40 40 40 41 42 43 44 44 44 45 46 46 46 45 44 43 41 39 38 37 36 35 35 36 36 36 36 36 36 35 34 32 31 30 29 29 28 27 28 30 29 27 26 26 26 26 26
15 16 16 17 17 18 19 18 19 24 28 30 32 34 37 40 42 42 41 41 42 43 42 44 45 45 45 45 44 45 45 43 42 40 39 38 37 36 35 36 36 36 35 36 36 35 34 33 32 31 30 30 29 29 31 31 30 28 27 27 28 28 27
16 18 18 18 19 18 18 18 19 24 29 32 35 37 40 43 43 43 43 42 43 43 43 44 45 44 44 44 44 45 45 44 43 42 41 40 38 36 36 36 36 36 35 35 35 35 34 33 32 31 30 31 31 32 33 33 31 30 29 29 29 29 28
16 17 16 16 17 16 17 18 19 23 29 33 36 38 41 42 41 40 41 42 43 44 46 46 46 45 45 45 45 44 45 45 44 43 42 40 38 37 37 37 37 36 35 35 35 34 34 33 33 32 32 33 33 33 34 34 33 32 31 31 31 30 30
15 16 15 15 16 16 18 19 20 26 31 34 37 39 38 37 37 39 40 40 41 43 43 44 44 45 44 45 44 42 42 43 43 42 41 40 38 38 39 39 38 37 36 35 34 35 35 34 34 34 34 34 34 35 35 35 34 33 33 33 32 32 31
15 15 16 16 16 17 19 19 20 27 34 36 37 36 34 34 37 38 38 39 40 41 41 42 44 44 44 44 43 41 40 41 41 41 40 39 38 38 39 39 39 38 36 35 35 35 35 35 35 35 35 35 36 36 36 36 36 35 35 35 34 32 32
16 15 16 17 17 17 18 19 19 24 30 31 29 28 30 34 36 37 37 39 40 40 41 44 44 44 44 42 41 41 41 40 40 40 40 39 38 39 40 39 39 38 37 36 35 36 36 36 36 36 36 36 37 37 37 37 36 36 37 36 35 34 33
16 16 17 17 17 16 17 18 18 20 24 25 26 28 31 34 34 36 39 40 39 40 43 44 44 44 43 41 41 42 41 40 40 40 40 39 39 40 41 40 39 38 37 37 36 36 37 37 37 37 37 37 38 38 38 37 37 38 38 38 37 36 35
15 16 16 15 15 14 15 16 15 15 16 18 23 27 30 32 35 37 38 38 39 42 44 43 42 41 41 41 41 40 41 41 40 40 40 41 41 41 41 40 39 38 38 37 36 36 37 37 37 38 38 38 38 38 39 38 38 38 39 39 38 37 36
13 14 14 14 14 14 15 14 13 13 13 15 20 26 29 32 34 35 36 38 40 42 42 41 40 40 41 41 40 40 41 41 40 40 41 41 41 42 41 40 39 38 38 38 37 37 37 37 37 37 38 39 39 39 39 39 39 39 39 40 39 38 37
12 13 14 15 15 15 15 14 13 14 13 14 20 25 28 30 32 33 36 39 40 40 40 40 40 40 40 40 40 40 41 41 41 42 42 42 42 41 40 40 39 38 38 38 38 37 37 37 38 38 39 40 40 40 40 39 39 39 39 40 39 39 38
12 12 13 14 14 14 14 13 14 16 15 16 21 25 27 30 32 34 35 37 39 39 38 38 39 40 40 40 40 41 41 42 43 42 42 43 42 40 39 39 39 39 39 38 37 37 37 37 37 38 39 39 39 40 40 39 40 40 40 40 39 39 39
11 11 11 11 12 13 13 14 15 16 16 16 20 25 28 30 33 35 36 37 38 37 37 38 39 40 40 40 40 41 42 43 43 43 43 42 41 39 38 38 39 39 38 37 37 38 38 37 37 37 38 38 39 39 39 39 40 41 41 40 39 39 39
10 11 12 13 14 14 14 15 15 16 16 16 17 21 25 28 31 33 34 34 36 38 39 40 40 40 40 39 40 42 42 42 41 41 41 40 39 39 39 38 38 38 37 37 38 38 37 37 36 36 36 37 38 38 39 40 41 42 42 41 40 39 38
12 13 14 15 15 14 15 16 16 15 15 15 15 19 23 26 29 32 33 34 35 38 39 40 40 40 39 40 42 42 41 40 40 40 40 40 40 39 39 38 37 36 37 37 37 37 36 36 36 36 36 37 37 38 39 41 42 43 43 42 41 39 38
11 13 14 16 16 15 15 16 15 14 14 15 16 20 24 27 29 32 33 33 35 37 38 39 39 38 39 41 41 40 39 39 39 39 40 41 40 39 38 37 36 36 36 36 35 36 35 35 36 36 37 37 38 39 40 42 42 41 42 43 42 40 38
12 12 13 14 14 14 15 16 15 15 16 16 18 22 26 28 28 29 30 32 35 37 37 38 38 38 40 40 38 37 39 39 39 39 40 40 40 39 37 36 35 35 35 35 35 36 36 36 36 37 38 38 38 39 41 41 41 40 41 42 42 41 39
11 12 12 12 11 12 13 13 14 17 18 17 20 26 31 31 29 29 33 36 37 36 35 37 38 38 38 37 35 37 39 38 38 39 39 40 40 38 36 35 35 36 36 36 36 35 36 37 37 38 39 39 39 40 41 40 39 40 41 42 42 41 40
7 7 7 7 9 11 12 12 12 14 16 21 27 32 34 33 32 34 36 36 34 34 36 37 37 37 37 36 36 38 38 38 38 39 39 39 38 36 35 36 37 37 37 35 35 36 37 38 38 38 39 40 40 40 40 38 38 40 41 41 41 41 41
4 5 5 4 6 8 10 12 13 12 14 21 28 30 30 32 34 35 34 33 33 35 37 38 37 37 37 36 37 38 38 39 39 39 38 37 36 36 36 37 37 37 36 35 36 38 38 38 38 39 40 40 40 39 38 38 38 39 40 40 40 40 41
3 3 4 4 5 7 7 8 10 14 19 25 27 28 29 32 34 33 31 32 35 36 37 37 36 36 36 36 37 39 40 40 40 38 37 36 36 36 37 38 38 37 37 37 38 38 37 38 39 40 40 39 39 38 38 38 38 39 40 39 39 39 40
5 4 4 4 4 4 6 8 9 10 15 22 26 28 31 33 33 31 30 31 32 33 34 33 33 34 36 36 38 39 40 40 39 38 36 36 36 38 38 39 39 38 38 38 37 37 38 39 40 40 39 39 39 39 38 37 37 39 39 39 38 38 39
5 5 6 7 8 8 5 7 11 11 11 14 20 27 31 31 31 29 27 27 29 30 30 31 32 35 36 37 39 40 40 41 40 38 36 37 38 39 40 40 39 40 40 40 39 39 40 40 39 38 39 39 40 41 39 37 37 38 38 38 38 38 39
8 8 7 8 9 10 12 10 7 14 14 12 17 23 24 25 27 26 24 26 28 28 27 29 33 36 38 40 42 42 41 40 39 38 37 38 40 40 40 40 40 40 40 40 40 39 39 38 36 36 38 39 40 41 39 37 37 37 37 37 37 37 39
9 9 9 9 11 11 13 15 8 6 13 15 19 22 20 20 21 22 23 25 26 26 28 33 38 40 40 41 39 38 38 38 39 40 40 40 41 41 40 40 38 38 39 39 39 37 35 36 36 36 36 37 38 38 38 37 36 36 36 36 36 36 38
7 8 8 10 13 16 15 14 12 6 6 12 16 18 20 21 19 19 21 22 22 26 33 39 40 39 38 37 34 34 36 38 40 41 42 42 40 39 39 39 38 38 39 38 36 34 33 34 35 34 34 35 35 35 36 37 37 36 35 35 34 35 37
9 10 12 13 17 19 16 12 11 11 9 9 10 13 19 22 20 19 19 18 21 31 38 39 37 36 34 33 32 33 35 37 39 41 41 41 40 39 39 40 39 39 38 36 34 33 33 33 33 32 30 30 31 33 34 35 36 35 34 33 32 33 36
10 10 12 13 16 18 17 12 11 12 13 9 5 11 17 19 19 19 17 18 26 33 33 31 31 31 31 31 32 32 34 36 38 39 38 39 40 41 40 39 38 37 36 35 34 33 32 31 30 28 25 25 27 29 31 33 34 32 31 31 31 31 34
10 10 10 10 13 16 15 11 11 16 18 15 8 5 12 18 20 17 16 22 30 30 25 24 25 27 28 30 31 32 34 36 37 38 38 39 40 39 37 37 37 36 35 35 33 31 29 28 27 25 23 22 21 21 23 27 30 29 28 29 29 29 33
8 9 10 11 13 16 15 11 10 14 17 17 14 9 7 12 16 16 18 27 31 28 25 25 24 25 28 30 31 32 34 35 36 38 39 39 39 38 36 35 34 33 33 33 32 29 25 24 23 22 20 19 18 17 18 22 26 28 26 27 28 29 31
7 8 10 10 12 15 16 13 10 10 11 15 16 13 11 10 10 13 20 27 29 26 25 25 25 26 28 29 31 34 35 35 36 38 39 40 40 39 36 34 33 32 30 29 29 27 25 23 24 24 24 24 22 23 24 23 26 28 27 27 29 29 29
7 7 8 9 11 15 14 11 9 8 8 12 16 17 16 14 13 14 16 20 26 27 27 26 27 28 30 31 33 34 35 36 37 38 39 39 39 37 36 36 37 35 33 31 30 28 28 29 30 30 30 29 27 27 26 25 26 28 29 30 30 29 28
6 6 7 8 10 11 10 7 7 8 8 9 14 18 19 18 17 16 16 16 20 24 26 28 30 30 31 33 34 35 36 37 36 35 34 33 34 35 36 39 40 38 38 40 39 35 32 32 33 33 32 31 30 29 28 28 30 31 31 31 31 31 32
7 7 8 10 11 11 10 7 6 7 8 11 14 17 18 20 20 17 16 15 17 18 20 25 29 30 31 33 33 34 37 38 37 35 32 30 31 33 35 39 43 43 43 45 47 46 44 42 39 37 36 34 35 35 32 30 34 36 34 33 33 35 35
7 7 9 12 13 12 12 11 9 8 9 11 13 14 15 18 19 18 16 15 15 16 17 19 20 22 25 28 29 31 32 32 33 35 35 34 35 34 33 34 38 41 42 44 48 50 50 48 45 44 41 38 39 41 39 37 38 36 33 32 33 33 31
8 8 10 13 13 12 13 14 12 11 10 10 10 10 11 13 14 14 14 12 11 12 15 17 17 17 19 20 23 27 30 30 31 33 35 37 39 38 33 28 25 27 31 36 42 44 42 40 40 43 43 41 40 40 37 35 35 33 32 31 29 27 27
10 10 11 13 13 12 12 13 14 13 11 11 11 9 7 8 9 9 9 8 6 4 6 8 9 11 14 18 21 23 23 24 24 23 21 21 25 30 33 31 25 21 21 26 33 39 39 37 37 40 41 41 40 37 33 30 31 32 30 28 26 25 26
Wind_Direction
199 200 201 201 201 201 202 201 200 200 200 200 201 201 200 199 199 199 199 200 199 199 199 199 200 201 202 205 207 208 209 211 211 212 214 215 216 217 217 218 218 219 219 218 220 222 223 225 225 224 224 223 224 222 218 214 212 214 216 218 220 222 222
198 204 203 200 201 203 203 201 200 201 202 202 202 201 200 200 199 199 199 200 200 200 199 199 200 201 203 205 206 208 209 210 211 212 214 215 215 215 217 219 220 221 221 221 222 223 224 225 225 224 222 221 222 220 215 212 212 213 216 219 220 220 220
200 205 202 201 202 202 202 200 201 203 203 204 203 201 201 201 200 199 199 198 200 201 201 200 201 202 203 205 206 208 209 210 210 211 213 215 215 215 216 219 221 223 223 223 223 223 224 224 225 224 221 220 220 217 213 213 213 214 217 219 219 218 219
201 205 202 204 204 201 201 199 201 203 204 205 204 202 203 202 201 200 199 199 199 200 200 201 202 203 204 204 206 208 209 209 210 211 213 215 215 215 214 217 221 223 224 224 223 223 224 224 223 222 220 219 218 216 214 214 214 215 218 221 220 219 221
203 206 203 205 204 202 202 201 202 203 205 206 205 205 205 203 200 199 200 200 200 200 201 202 202 203 205 205 206 208 209 209 210 211 213 214 214 214 214 217 219 222 224 225 224 223 223 222 221 219 218 217 217 216 215 215 216 218 220 222 223 223 224
202 203 202 204 203 201 202 202 204 204 205 207 206 206 205 200 199 199 200 200 201 202 202 202 203 204 205 206 207 209 210 210 211 211 212 213 213 213 215 217 219 221 224 224 224 222 221 220 219 218 217 216 216 216 216 217 218 219 222 224 225 226 227
201 200 202 204 201 200 202 202 204 205 206 207 206 205 200 197 198 199 199 199 200 201 201 202 204 204 205 206 207 209 209 210 211 212 213 213 213 214 215 217 219 221 223 223 223 221 219 219 219 218 217 215 215 216 217 219 219 220 222 224 226 227 228
204 201 202 203 201 200 201 202 205 205 206 206 204 200 196 197 198 198 198 199 200 199 201 203 204 204 205 206 207 208 209 210 211 212 213 213 213 214 216 217 218 219 221 222 222 220 218 218 217 217 217 215 215 216 218 220 220 220 221 223 225 225 226
209 206 206 203 200 200 201 204 205 203 202 201 199 197 196 196 197 198 199 198 198 199 202 204 204 204 204 205 206 208 209 210 211 211 212 212 213 214 216 216 216 217 219 220 220 219 218 218 217 216 215 215 216 217 219 221 221 220 221 223 224 225 226
212 212 213 206 199 200 203 205 204 200 198 196 197 197 196 196 197 198 199 197 197 201 204 204 203 203 203 204 206 207 208 210 210 210 212 212 213 215 215 216 216 216 217 218 218 218 217 217 216 215 214 215 216 218 219 221 222 221 222 223 225 226 227
216 216 216 209 200 200 203 202 198 197 197 194 195 196 195 196 198 197 197 198 199 202 204 203 202 201 202 203 205 206 208 209 209 210 212 213 214 215 215 215 215 215 215 215 216 217 216 215 215 214 214 215 216 218 219 221 222 221 221 223 225 226 227
215 212 214 210 202 201 201 198 195 195 196 196 196 195 195 196 197 197 198 199 201 202 201 201 200 200 201 202 203 205 207 208 209 210 212 213 214 215 215 214 214 214 214 213 214 215 215 215 214 214 215 216 217 218 219 220 222 222 221 222 224 225 227
217 211 212 208 204 205 200 194 195 196 195 197 195 195 195 194 195 196 198 199 201 201 199 199 199 199 201 202 203 205 207 207 208 210 212 214 215 215 215 214 214 213 213 212 212 213 214 215 215 215 216 217 218 219 220 220 221 222 222 222 223 223 225
221 214 209 203 203 206 200 196 198 197 196 197 195 194 194 195 196 197 198 199 198 197 198 197 198 199 201 202 203 206 207 208 209 210 212 214 214 215 215 214 214 214 212 211 211 212 214 215 215 216 217 218 218 219 220 220 221 222 221 221 222 222 224
220 214 206 202 201 199 198 200 200 198 197 195 192 193 193 194 197 197 198 198 196 196 197 196 197 199 200 201 204 207 207 208 208 209 211 213 214 214 214 214 215 214 212 211 211 212 214 215 216 216 216 217 218 219 219 220 221 222 221 220 220 221 223
213 213 208 205 201 194 195 201 201 198 196 193 191 191 192 194 196 196 197 197 195 196 197 195 197 198 199 202 205 206 206 206 207 208 210 212 213 214 213 214 214 213 213 212 211 211 212 213 215 215 216 216 217 218 219 221 222 222 221 221 221 221 222
220 219 215 210 202 194 193 197 197 193 191 193 194 192 193 195 196 196 197 195 194 196 196 195 197 199 201 205 206 204 204 205 206 206 208 211 213 213 213 212 212 212 213 212 210 210 210 211 213 214 216 217 217 218 219 221 223 222 222 223 222 221 221
225 225 225 220 208 197 194 193 190 190 191 194 194 194 196 196 195 195 195 195 196 196 194 194 197 200 204 206 205 203 204 204 204 205 208 209 211 212 211 211 211 211 212 211 210 209 209 210 211 213 215 217 218 219 221 223 223 222 223 224 223 222 222
233 230 228 224 209 196 196 194 191 193 194 192 192 196 199 196 193 194 196 197 197 194 191 194 198 201 204 205 203 203 204 204 204 206 208 209 210 210 209 209 210 211 211 211 210 209 209 209 210 213 215 216 218 220 222 223 223 223 224 224 223 223 223
267 266 258 239 216 201 195 194 198 201 198 195 196 199 199 196 195 198 199 198 195 192 192 196 199 201 204 203 203 203 203 203 204 206 208 208 208 207 207 208 209 210 210 210 208 208 209 209 209 212 214 216 218 220 222 223 222 223 224 224 223 224 224
251 273 280 264 241 227 209 196 193 196 200 202 201 198 196 196 197 199 199 196 193 193 195 197 199 201 202 202 202 203 202 203 205 206 207 206 206 205 206 208 209 209 208 208 208 210 210 208 209 212 214 216 217 219 221 222 222 223 224 224 224 225 225
298 283 266 250 238 235 230 217 206 198 196 198 197 195 196 198 199 197 196 195 194 196 197 197 199 201 201 202 202 202 202 203 204 205 205 203 203 204 206 207 208 208 207 207 209 210 210 210 211 212 213 215 216 218 220 222 222 223 224 224 224 224 224
330 341 338 316 282 245 228 230 236 230 211 198 193 194 197 198 197 195 195 194 195 196 197 198 201 202 202 203 203 202 203 203 203 204 203 201 201 204 206 207 207 207 206 206 208 209 209 211 212 212 213 213 214 216 219 221 222 222 223 223 224 222 220
338 1 10 8 2 351 316 246 225 224 224 211 202 201 200 197 194 192 192 193 194 195 197 199 203 204 204 204 205 204 203 202 202 202 201 200 202 204 206 206 207 207 206 206 206 208 210 211 211 212 213 213 214 216 217 219 221 222 222 223 223 221 219
353 5 8 19 24 7 346 324 245 203 195 205 216 214 207 199 194 191 190 192 193 194 197 202 206 206 206 207 206 205 203 202 201 201 201 202 204 205 206 207 207 206 206 206 208 209 210 210 210 211 212 213 214 216 216 217 219 220 221 222 221 220 219
352 356 355 5 12 7 3 1 347 211 191 198 213 216 211 202 196 195 196 195 192 193 199 205 208 209 209 209 208 205 203 201 200 201 202 204 205 205 207 207 207 206 206 207 209 209 209 209 210 211 212 212 214 214 214 215 218 219 220 220 220 219 218
351 356 355 357 2 5 10 13 7 340 258 229 218 210 205 201 198 203 206 199 194 199 205 208 210 211 210 210 209 206 204 202 202 203 204 206 205 205 207 207 206 205 205 206 207 206 207 209 210 210 211 211 210 211 211 213 217 218 218 218 219 218 215
2 3 1 1 4 6 4 1 4 2 336 285 242 212 200 197 199 207 209 205 207 211 211 211 212 211 210 210 209 207 206 205 204 204 205 206 204 203 206 207 206 205 205 204 204 204 205 207 207 207 208 206 206 207 208 211 216 217 216 215 215 215 214
9 6 3 4 3 2 0 353 348 351 353 344 275 222 201 192 200 208 207 211 220 221 219 217 214 211 210 210 209 209 208 207 206 205 205 205 205 204 204 204 203 204 203 201 200 200 202 203 201 198 196 194 196 201 203 207 212 214 213 211 210 211 212
14 10 7 4 358 358 1 359 344 337 343 356 352 257 212 198 199 203 208 219 225 226 227 227 220 213 210 209 209 208 208 208 207 205 205 206 205 204 204 202 200 200 200 199 197 196 196 194 190 186 183 179 178 185 195 202 205 206 207 206 205 207 209
14 12 6 358 354 357 358 355 347 338 335 344 351 337 275 228 209 202 212 222 225 223 223 223 218 212 210 209 207 207 207 207 206 206 206 205 203 203 203 200 196 196 196 194 192 191 189 183 176 170 162 152 153 169 189 201 203 200 199 200 202 205 207
10 7 4 357 350 351 351 349 350 349 338 335 338 339 326 294 254 231 227 225 221 218 218 215 210 208 208 207 206 205 204 203 204 205 205 204 202 202 200 196 192 192 191 188 186 184 177 164 155 148 143 146 163 182 190 198 202 198 192 196 202 203 204
12 6 5 359 351 346 345 346 350 351 342 332 331 331 327 311 290 278 262 238 222 216 214 210 205 205 205 204 204 203 202 202 203 204 203 202 199 196 193 191 190 187 182 181 181 176 167 158 151 149 154 164 174 179 180 188 197 196 191 194 198 198 198
16 11 9 5 1 356 350 345 344 344 339 334 333 331 326 316 303 294 286 259 232 220 213 207 204 203 202 202 201 200 200 202 203 202 201 198 195 191 188 187 186 184 182 184 181 172 164 161 159 163 171 175 171 167 170 183 193 195 192 192 192 193 194
12 13 10 5 5 6 3 354 346 348 347 344 342 337 330 326 321 312 299 277 253 238 224 212 205 202 201 199 198 198 199 199 199 197 194 190 188 188 187 186 186 184 184 187 187 181 175 171 171 176 180 177 172 168 168 179 190 193 191 190 191 192 193
12 9 7 7 6 6 4 356 349 355 359 356 352 346 339 337 335 329 319 299 273 259 249 231 215 207 203 199 198 197 196 195 193 191 186 181 178 179 181 184 187 187 185 186 187 186 183 181 181 181 179 176 176 176 176 182 189 189 189 192 194 195 194
18 11 7 9 11 9 4 358 353 353 356 360 1 357 353 353 350 344 338 327 299 271 254 238 223 214 207 202 201 198 194 190 189 187 184 181 178 174 167 162 165 175 182 182 179 178 183 188 186 181 178 176 176 177 180 186 187 184 186 192 194 195 196
24 20 17 17 16 13 7 3 359 351 346 351 359 3 10 15 10 6 7 2 348 307 258 246 239 228 216 206 201 197 192 186 182 178 177 179 178 171 160 149 143 144 153 165 170 175 185 192 187 180 178 177 175 175 178 182 183 183 185 188 190 194 197
Height
694 696 696 698 700 702 703 704 707 709 711 714 717 720 724 727 731 735 738 741 743 747 750 753 756 759 761 763 766 769 772 775 778 780 782 785 787 790 793 795 797 798 798 799 800 802 804 806 808 810 812 815 816 818 819 820 822 823 825 826 828 829 830
691 692 692 694 696 697 698 699 701 704 707 709 711 715 719 722 725 729 732 736 740 743 746 749 751 754 756 759 762 765 768 771 774 777 780 782 784 787 790 793 794 795 796 797 798 800 802 804 806 808 810 812 814 816 817 819 820 822 823 825 826 827 828
687 687 687 689 689 690 692 694 697 699 702 705 707 711 714 716 719 722 727 731 735 739 743 745 748 750 753 756 759 761 764 767 770 773 776 778 781 784 787 790 792 793 794 795 797 798 800 802 804 806 808 810 812 814 816 817 819 820 822 823 824 825 826
681 680 681 682 683 685 687 689 692 694 697 699 702 705 707 710 714 718 722 726 730 735 738 741 744 747 750 752 755 757 759 763 766 769 772 774 777 781 783 786 788 791 792 793 795 796 798 800 802 804 806 808 810 812 814 816 817 819 820 822 823 824 825
677 676 678 680 680 682 683 684 686 688 691 694 696 700 702 706 711 715 719 722 726 729 732 736 739 742 745 747 750 752 755 759 762 765 768 771 774 777 779 782 784 787 789 791 793 794 796 798 799 801 803 805 807 810 812 814 815 817 818 820 821 822 823
673 673 674 674 675 677 678 679 680 682 685 688 691 694 698 704 710 712 716 719 723 726 730 733 736 738 741 743 746 749 753 756 759 762 765 768 771 773 775 777 780 783 786 788 790 792 793 795 796 798 800 802 805 807 809 811 813 815 816 818 819 820 822
665 666 667 667 667 669 671 673 674 676 679 682 685 690 696 701 705 708 712 716 719 723 727 730 732 734 737 740 743 747 750 753 756 759 763 765 768 769 771 773 776 779 782 785 787 789 790 792 793 796 798 800 802 804 806 808 810 812 814 816 817 818 820
657 659 660 660 660 662 665 667 668 671 674 679 684 689 693 697 700 704 708 711 715 719 722 724 726 729 733 737 741 744 747 750 753 756 759 762 764 766 767 769 772 775 779 781 784 786 787 789 791 793 795 797 800 802 804 806 808 810 812 813 815 816 817
651 652 652 652 654 657 659 660 662 665 670 676 681 684 688 692 695 699 701 705 710 714 715 718 721 725 730 734 737 740 743 747 750 753 755 758 760 761 763 765 768 771 774 777 780 783 784 786 788 791 793 795 797 799 801 803 805 807 809 810 812 813 814
648 649 647 648 651 653 655 656 659 664 668 673 676 680 684 687 690 693 697 701 706 707 710 714 718 722 726 730 733 736 740 742 745 749 751 753 755 756 759 762 764 767 770 773 777 779 782 784 786 788 790 792 794 796 798 800 802 804 806 807 809 811 812
647 647 646 647 649 651 653 656 659 663 665 668 671 675 678 682 685 688 692 696 699 702 706 711 715 719 722 726 730 733 735 738 742 744 745 748 750 752 755 758 761 763 766 769 773 776 778 781 783 785 787 789 791 793 795 797 799 801 803 804 806 808 810
643 644 645 645 646 648 650 652 655 658 660 663 666 669 673 677 681 684 688 691 694 698 702 706 711 715 718 722 725 728 730 733 736 738 741 744 746 749 752 755 758 760 762 765 769 772 775 778 780 782 784 786 788 790 792 795 797 798 800 802 804 806 808
638 639 641 642 643 645 647 650 652 654 656 658 661 664 668 672 676 680 683 686 690 694 699 703 707 710 713 717 720 722 725 727 730 733 736 739 742 746 750 752 755 756 759 762 765 769 772 774 777 779 781 784 786 788 790 792 794 795 797 799 801 803 804
636 636 638 640 642 644 646 648 649 650 652 654 657 661 664 667 671 674 677 681 685 691 695 698 702 706 709 712 715 716 718 721 725 729 732 736 739 744 747 749 752 754 756 759 761 764 768 770 774 776 779 781 783 785 787 789 790 792 793 795 798 800 801
636 636 636 637 639 641 643 645 645 646 648 650 653 657 660 664 667 670 674 678 682 686 688 692 697 700 704 707 708 710 713 718 722 725 729 733 736 739 742 745 748 751 754 756 757 761 764 767 771 773 776 778 780 782 784 785 786 787 789 792 794 796 798
632 632 631 631 633 635 637 639 640 642 644 647 650 653 656 660 662 665 669 673 677 680 683 688 692 695 698 700 701 705 710 714 718 721 725 729 731 735 738 742 746 749 751 753 754 757 761 764 767 770 772 774 776 778 779 780 781 783 785 788 791 793 796
630 628 626 625 626 629 631 633 636 639 642 645 646 648 651 654 657 660 664 668 672 675 679 684 687 690 693 695 697 702 707 710 714 717 721 724 727 731 735 739 742 745 748 750 752 754 757 759 762 765 768 770 772 773 774 775 777 780 783 786 788 791 793
629 627 625 623 622 624 626 629 632 634 637 638 641 644 647 649 653 657 661 665 667 670 675 680 683 686 688 690 695 700 703 706 710 713 716 719 723 727 731 735 739 742 744 747 748 750 752 754 757 759 762 765 767 769 770 771 774 777 779 782 785 788 790
625 623 621 621 621 622 624 625 626 627 628 630 634 638 640 644 649 653 655 658 662 667 672 675 678 681 684 688 693 696 699 703 706 709 712 715 718 723 728 732 735 737 739 742 744 747 748 749 751 754 757 760 762 763 765 767 770 773 776 778 781 785 787
627 623 621 620 620 619 620 621 623 623 624 626 628 631 635 640 644 647 651 655 660 664 668 670 673 676 680 684 688 691 695 699 702 704 708 711 716 721 724 727 729 732 735 738 741 742 743 744 746 749 751 754 756 759 761 763 766 769 772 775 778 781 783
625 622 620 620 620 619 618 617 619 621 622 624 625 628 633 637 639 644 648 653 658 661 662 665 668 670 674 678 682 686 690 693 696 700 703 708 713 716 719 722 724 727 730 733 735 736 737 739 741 743 745 748 751 754 757 759 762 765 768 771 774 777 780
624 622 620 618 618 618 617 616 616 616 616 618 622 626 630 632 635 640 645 648 652 655 657 660 663 665 669 672 676 679 683 686 691 695 699 704 708 711 714 716 719 722 725 727 729 731 733 734 736 737 740 743 747 750 752 754 757 760 763 767 770 774 777
624 623 620 617 615 614 614 615 615 616 616 617 620 622 624 628 632 637 641 645 648 651 654 657 659 661 664 667 669 673 677 681 686 690 694 699 702 705 708 710 713 716 719 721 723 725 727 728 730 732 735 738 741 744 747 749 752 756 759 763 767 770 773
623 621 619 617 615 613 612 613 614 616 619 621 621 621 622 626 630 635 639 642 645 648 651 653 654 656 658 661 663 667 671 676 680 685 690 693 696 698 701 704 708 710 712 715 717 718 720 722 726 728 731 733 736 738 741 745 748 752 756 759 763 766 769
621 620 619 617 617 617 615 613 613 614 617 620 622 622 624 627 630 632 635 638 641 645 647 648 649 650 652 654 657 661 665 670 676 680 684 687 690 693 696 699 702 704 707 709 711 713 716 719 723 725 726 728 731 733 737 741 744 748 752 756 759 763 765
623 621 619 618 618 618 616 614 614 614 615 616 618 621 625 628 630 631 632 634 637 640 641 641 642 644 646 649 653 658 662 666 671 674 677 681 684 688 692 695 698 701 703 705 707 710 713 716 718 720 722 724 727 730 734 738 741 745 748 752 755 758 761
625 622 621 619 618 617 616 616 616 616 615 614 616 620 623 626 628 630 631 633 635 634 633 634 636 640 644 648 653 657 659 662 665 668 671 675 679 684 688 690 693 696 698 700 703 707 710 712 714 716 718 721 724 728 731 734 737 741 745 748 752 755 758
625 623 621 620 618 617 617 616 616 617 617 616 616 618 620 623 625 627 629 632 632 629 627 630 633 637 641 646 650 654 656 659 661 663 667 671 675 679 681 684 688 691 693 697 700 703 705 708 710 714 716 719 722 725 728 731 734 738 742 745 749 752 754
629 627 625 623 622 621 619 618 616 616 617 617 617 617 618 620 622 623 627 628 627 626 627 629 632 636 639 643 647 650 654 656 658 661 664 667 670 672 675 679 683 686 689 693 695 698 701 704 707 711 714 718 721 723 726 728 731 735 739 742 746 749 751
632 631 629 628 626 625 623 622 619 616 615 616 618 618 617 618 618 620 622 622 622 625 627 629 632 634 636 639 642 645 648 651 654 657 659 662 666 669 672 675 678 682 685 688 691 694 697 700 705 709 713 717 720 724 727 728 730 733 736 740 743 745 748
634 633 631 630 629 627 626 625 624 621 618 617 618 619 619 618 617 617 617 617 618 621 623 626 629 631 632 634 637 639 643 646 649 651 653 656 660 663 667 671 675 678 681 684 687 691 694 698 702 707 712 716 720 725 729 732 733 733 734 737 740 743 746
636 634 633 632 630 629 628 627 626 625 623 620 619 619 619 620 619 617 615 614 615 618 619 622 624 626 628 630 632 634 637 640 643 645 647 649 652 655 661 666 671 674 678 681 685 688 691 696 699 703 708 712 715 721 726 731 734 734 733 735 738 741 744
639 637 636 635 633 631 630 628 628 627 626 624 622 620 620 619 619 619 617 615 615 615 616 618 619 621 622 624 626 628 631 633 635 637 639 641 644 648 653 658 662 666 670 675 679 682 685 688 690 694 698 702 707 714 720 727 733 733 731 733 736 739 742
640 639 638 637 636 634 633 631 631 630 629 627 626 624 621 619 619 619 619 618 616 615 614 614 615 616 617 619 620 622 625 627 630 632 635 638 640 642 644 647 652 656 660 664 667 672 676 680 683 686 690 694 700 708 715 721 727 729 728 730 733 735 738
639 638 637 636 636 635 633 633 632 631 630 629 627 625 623 621 620 620 619 619 619 618 616 614 613 613 613 614 615 616 617 620 623 626 630 633 637 639 640 640 642 646 649 654 657 660 663 668 673 679 685 690 695 700 705 712 718 721 724 727 729 732 734
640 639 637 636 635 634 633 632 631 630 630 629 628 627 625 623 622 621 620 619 619 619 618 616 614 613 612 611 611 611 612 614 617 619 623 626 629 633 637 640 641 642 644 647 651 655 659 661 664 669 676 684 690 693 696 703 709 714 721 725 728 731 733
641 640 639 637 636 635 634 633 632 631 631 630 629 628 628 626 624 622 621 619 618 618 618 617 616 614 612 611 610 609 609 610 611 613 616 618 620 624 629 636 642 646 647 648 651 658 666 669 669 669 673 679 686 691 695 700 705 711 718 724 727 731 733
643 643 642 640 639 638 637 635 634 633 632 632 630 629 628 627 626 624 622 620 619 618 618 618 618 617 615 612 610 609 608 608 609 612 616 619 622 625 626 630 637 645 650 653 655 660 667 672 673 673 675 679 685 691 695 698 703 710 717 722 726 729 731